Location: Charlton
(50.9833°N, 2.1333°W)
Time: 13:25:45
(UTC+00:00)

Daily predictions for brighter satellites

Satellite Brightness Start Highest point End
(mag) Time Altitude Azimuth Time Altitude Azimuth Time Altitude Azimuth
S3M 4.1 19:00:24 10° S 19:06:43 68° E 19:13:05 10° NNE
STARLINK-1078 4.2 19:05:25 10° WNW 19:09:22 52° SSW 19:13:19 10° SE
NOSS 2-1 (C) 3.3 19:06:16 10° SW 19:09:39 73° NW 19:13:29 10° NE
STARLINK-1192 4.3 19:06:38 10° SSW 19:10:23 36° SE 19:14:09 10° ENE
Cosmos 1805 3.2 19:06:58 10° S 19:10:52 77° E 19:14:47 10° NNE
Cosmos 2278 Rocket 3.7 19:05:46 10° NW 19:11:02 40° WSW 19:16:17 10° S
Meteor 2-5 Rocket 3.9 19:06:06 10° NNW 19:11:48 80° W 19:17:22 10° S
STARLINK-1121 3.7 19:08:02 10° WNW 19:12:12 79° NNE 19:16:21 10° ESE
NOSS 2-1 (D) 3.5 19:10:28 10° SW 19:13:51 67° NW 19:17:42 10° NE
STARLINK-1108 4.3 19:10:17 10° WNW 19:14:13 49° SSW 19:18:09 10° SE
STARLINK-1244 4.2 19:11:29 10° SW 19:15:17 38° SE 19:19:06 10° ENE
Cosmos 1602 Rocket 4.4 19:12:05 10° N 19:16:11 33° ENE 19:20:12 10° SE
STARLINK-1106 3.7 19:13:00 10° WNW 19:17:09 81° NNE 19:21:19 10° ESE
ARGOS 3.3 19:11:56 10° SSE 19:17:13 58° ENE 19:22:31 10° N
STARLINK-1071 4.4 19:14:58 10° WNW 19:18:52 46° SSW 19:22:46 10° SE
Okean 1-7 Rocket 3.7 19:15:07 10° NNW 19:19:33 84° W 19:23:56 10° S
STARLINK-1138 4.1 19:16:01 10° SW 19:19:52 41° SSE 19:23:43 10° ENE
Cosmos 1048 Rocket 4.2 19:14:57 10° SSW 19:20:05 79° WNW 19:25:20 10° NNE
STARLINK-1234 2.8 19:17:46 10° WSW 19:20:42 62° SSE 19:23:39 10° ENE
STARLINK-1112 3.6 19:18:01 10° WNW 19:22:11 84° NNE 19:26:14 11° ESE
Cosmos 494 Rocket 3.9 19:17:46 10° SSW 19:22:53 70° ESE 19:28:05 10° NNE
Meteor 1-24 Rocket 3.8 19:17:29 10° NNW 19:23:05 85° W 19:28:28 10° S
STARLINK-1110 4.4 19:19:26 10° WNW 19:23:18 44° SSW 19:27:10 10° SE
USA 186 1.9 19:20:56 10° SSE 19:24:20 62° ENE 19:27:40 10° N
STARLINK-1143 4.0 19:20:51 10° SW 19:24:44 43° SSE 19:28:38 10° ENE
STARLINK-1128 3.6 19:22:59 10° WNW 19:27:10 86° NNE 19:31:01 12° ESE
Cosmos 1331 Rocket 4.5 19:23:28 10° NNW 19:28:35 63° WSW 19:33:39 10° S
CZ-2C R/B 2.9 19:24:35 10° SSE 19:29:35 74° ENE 19:34:25 10° N
Cosmos 1544 Rocket 3.6 19:25:58 10° S 19:30:16 59° E 19:34:40 10° NNE
USA 81 4.4 19:26:20 10° N 19:31:37 72° W 19:36:50 10° S
NOSS 0 Rocket 4.5 19:25:49 10° SW 19:31:59 66° NW 19:38:10 10° NNE
STARLINK-1113 3.6 19:27:58 10° WNW 19:32:08 89° NNE 19:35:47 13° ESE
Cosmos 1470 3.3 19:28:45 10° SSE 19:32:19 37° E 19:35:57 10° NNE
STARLINK-1241 3.9 19:29:07 10° SW 19:33:02 48° SSE 19:36:57 10° ENE
Cosmos 883 Rocket 4.5 19:29:35 10° S 19:35:43 69° E 19:41:59 10° NNE
CZ-4 R/B 4.3 19:33:18 10° SW 19:35:59 18° W 19:38:41 10° NW
SPOT 3 Rocket 3.8 19:31:19 10° SE 19:36:23 53° ENE 19:41:28 10° N
STARLINK-1119 3.6 19:32:57 10° WNW 19:37:06 88° SSW 19:40:34 15° ESE
STARLINK-1239 3.8 19:34:00 10° SW 19:37:56 51° SSE 19:41:53 10° ENE
MOS 1 4.3 19:32:39 10° SSE 19:38:18 88° ENE 19:44:00 10° NNW
Cosmos 2369 Rocket 2.7 19:32:56 10° NNW 19:38:27 46° NE 19:43:14 13° ESE
STARLINK-1114 3.6 19:37:58 10° WNW 19:42:08 85° SSW 19:45:24 16° ESE
SJ-6B 2.9 19:38:22 10° SSE 19:42:26 78° ENE 19:46:36 10° NNW
STARLINK-1240 3.7 19:38:41 10° SW 19:42:38 54° SSE 19:46:29 11° ENE
Cosmos 1733 3.5 19:39:26 10° SSW 19:43:12 71° WNW 19:46:59 10° N
Aureole 2 Rocket 3.3 19:40:35 10° N 19:43:49 33° ENE 19:45:57 17° ESE
Cosmos 1726 3.6 19:42:56 16° ESE 19:44:13 18° E 19:46:51 10° NE
Cosmos 1758 Rocket 4.4 19:41:06 10° N 19:45:01 31° ENE 19:47:54 15° SE
Ariane Rocket 3.5 19:40:32 10° S 19:45:34 63° WSW 19:50:38 10° NNW
Cosmos 1758 3.5 19:42:19 10° S 19:46:16 49° E 19:50:15 10° NNE
STARLINK-1130 (DARKSAT) 3.6 19:42:56 10° WNW 19:47:06 81° SSW 19:50:10 18° ESE
STARLINK-1216 3.6 19:43:23 10° SW 19:47:22 57° SSE 19:51:03 12° ENE
CZ-2C R/B 4.1 19:44:02 10° NNE 19:48:36 44° E 19:53:06 10° S
ATLAS CENTAUR R/B 4.0 19:46:45 10° NW 19:49:19 15° NNW 19:51:48 10° NNE
STARLINK-1209 2.6 19:47:41 10° WSW 19:50:38 87° NNW 19:52:50 16° ENE
STARLINK-1084 3.6 19:47:54 10° WNW 19:52:03 78° SSW 19:54:56 19° ESE
STARLINK-1237 3.6 19:48:08 10° SW 19:52:08 61° SSE 19:55:37 13° ENE
STARLINK-1228 2.6 19:49:54 10° WSW 19:52:47 85° NNW 19:54:51 17° ENE
Meteor 1-22 Rocket 4.3 19:47:44 10° SSW 19:53:01 73° WNW 19:58:20 10° N
Cosmos 2184 Rocket 4.3 19:47:59 10° N 19:54:06 47° ENE 19:59:37 12° SE
IRIDIUM 106 4.5 19:49:21 10° N 19:54:30 53° E 19:59:36 10° SSE
Terra 4.0 19:54:42 10° ENE 19:55:41 11° NE 19:56:39 10° NE
NOSS 2-2 (D) 4.5 19:50:31 10° NW 19:55:54 78° NE 20:01:57 16° SE
SL-14 R/B 4.1 19:52:12 10° NNW 19:56:11 55° W 20:00:07 10° S
Cosmos 2219 Rocket 4.4 19:51:50 10° W 19:56:35 27° NW 20:01:20 10° NNE
STARLINK-1202 3.5 19:52:51 10° SW 19:56:52 64° SSE 20:00:12 15° ENE
STARLINK-1098 3.7 19:52:53 10° WNW 19:57:02 74° SSW 19:59:43 21° ESE
Spot 2 Rocket 4.5 19:55:41 18° ESE 19:58:38 30° ENE 20:03:05 10° N
Cosmos 1943 Rocket 2.1 19:54:26 10° NNW 20:00:00 76° ENE 20:04:35 16° SE
Meteor 1-21 Rocket 4.2 19:55:09 10° N 20:00:44 66° ENE 20:06:08 10° SSE
ERBS 3.6 19:57:59 10° W 20:01:12 39° NNW 20:04:25 10° NE
STARLINK-1123 3.7 19:57:52 10° WNW 20:02:01 71° SSW 20:04:30 23° SE
STARLINK-67 2.7 20:01:26 10° W 20:04:00 63° N 20:05:16 26° ENE
STARLINK-1246 3.5 20:00:01 10° WSW 20:04:04 70° SSE 20:07:11 17° ENE
Cosmos 1943 4.2 20:01:04 14° SE 20:04:19 23° ESE 20:08:39 10° NE
SL-8 R/B 3.8 19:59:55 10° W 20:04:39 64° S 20:07:34 23° ESE
STARLINK-1201 2.9 20:03:25 10° WSW 20:06:42 89° NNW 20:08:41 22° ENE
STARLINK-1097 3.7 20:02:50 10° WNW 20:06:58 67° SSW 20:09:16 25° SE
Cosmos 1626 3.5 20:04:16 10° NNW 20:07:46 40° W 20:11:14 10° SSW
ATLAS 2AS CENTAUR R/B 3.4 20:01:37 10° NW 20:09:11 49° NNE 20:14:22 19° E
Resurs 1-3 3.5 20:05:32 13° SSE 20:09:27 77° ENE 20:13:52 10° NNW
STARLINK-1224 3.5 20:07:07 10° WSW 20:11:10 74° SSE 20:13:58 19° ENE
STARLINK-1099 3.8 20:07:50 10° WNW 20:11:57 64° SSW 20:14:04 27° SE
STARLINK-1203 3.4 20:08:28 10° WSW 20:12:28 79° SSE 20:15:06 20° ENE
Cosmos 2315 Rocket 4.1 20:08:12 10° SSW 20:14:31 82° W 20:20:56 10° N
Cosmos 2154 Rocket 4.4 20:09:06 10° N 20:15:11 45° ENE 20:18:59 22° SE
STARLINK-1225 3.5 20:11:41 10° WSW 20:15:45 78° SSE 20:18:23 21° ENE
H-2A R/B 3.2 20:11:13 10° S 20:16:16 44° W 20:21:13 10° NNW
USA 234 3.3 20:09:56 10° ENE 20:16:20 55° SE 20:22:43 10° SW
STARLINK-1104 3.8 20:12:49 10° WNW 20:16:55 60° SSW 20:18:51 29° SE
Aureole 3 3.6 20:14:01 10° S 20:18:09 73° E 20:23:29 10° NNE
DMSP B5D2-2 4.1 20:13:00 10° NNE 20:18:10 59° E 20:23:19 10° S
SL-08 RB Rocket 4.2 20:13:51 10° S 20:18:18 59° W 20:22:51 10° NNW
Cosmos 1328 4.4 20:15:37 10° N 20:19:22 37° ENE 20:20:25 31° ESE
Resurs 01 Rocket 1.6 20:16:28 21° SSE 20:19:23 70° ENE 20:23:47 10° N
Meteor 2-15 Rocket 4.4 20:13:29 10° S 20:19:33 82° E 20:25:39 10° NNE
STARLINK-1233 2.9 20:16:33 10° WSW 20:19:42 77° NNW 20:21:02 32° ENE
STARLINK-1212 2.9 20:17:02 10° WSW 20:20:10 77° NNW 20:21:27 32° ENE
STARLINK-1230 3.5 20:16:26 10° WSW 20:20:30 81° SSE 20:22:57 23° ENE
STARLINK-1105 2.9 20:17:27 10° WSW 20:20:36 76° NNW 20:21:54 32° ENE
STARLINK-1206 2.9 20:17:58 10° WSW 20:21:05 76° NNW 20:22:18 33° ENE
SL-16 R/B 2.3 20:15:41 10° SW 20:21:21 78° WNW 20:27:03 10° NNE
STARLINK-1247 2.9 20:18:23 10° W 20:21:31 76° NNW 20:22:44 33° ENE
STARLINK-1144 3.9 20:17:49 10° WNW 20:21:54 57° SSW 20:23:38 31° SE
STARLINK-1227 2.9 20:18:49 10° W 20:21:57 76° NNW 20:23:11 34° ENE
Abrixas rocket 4.1 20:19:46 10° SSW 20:20:45 16° S 20:20:45 16° S
STARLINK-1218 2.9 20:19:18 10° W 20:22:25 75° NNW 20:23:36 34° ENE
STARLINK-1226 2.9 20:19:44 10° W 20:22:52 75° NNW 20:24:03 35° ENE
STARLINK-1254 3.0 20:20:10 10° W 20:23:18 75° NNW 20:24:29 35° ENE
Cosmos 2228 3.7 20:22:40 31° ESE 20:23:28 34° E 20:27:22 10° NNE
STARLINK-1215 2.9 20:20:39 10° W 20:23:46 74° NNW 20:24:55 36° ENE
STARLINK-1231 2.9 20:21:06 10° W 20:24:13 74° NNW 20:25:20 36° ENE
STARLINK-1232 3.0 20:22:01 10° W 20:25:08 74° NNW 20:26:12 37° ENE
STARLINK-1243 3.5 20:21:15 10° WSW 20:25:20 84° SSE 20:27:36 26° ENE
STARLINK-1217 3.0 20:22:28 10° W 20:25:35 73° NNW 20:26:38 37° ENE
STARLINK-1208 3.0 20:22:52 10° W 20:26:01 73° NNW 20:27:05 37° ENE
STARLINK-1229 3.0 20:23:21 10° W 20:26:28 73° NNW 20:27:30 38° ENE
STARLINK-1103 4.0 20:22:47 10° WNW 20:26:51 54° SSW 20:28:25 33° SSE
STARLINK-1271 3.0 20:23:48 10° W 20:26:56 73° NNW 20:27:55 39° ENE
Cosmos 1953 2.1 20:23:19 10° S 20:27:16 74° E 20:31:16 10° NNE
STARLINK-1270 3.0 20:24:16 10° W 20:27:23 72° NNW 20:28:22 39° ENE
STARLINK-1154 3.0 20:24:43 10° W 20:27:50 72° NNW 20:28:48 40° ENE
STARLINK-1197 3.0 20:25:38 10° W 20:28:45 72° NNW 20:29:41 41° ENE
STARLINK-1189 3.0 20:26:05 10° W 20:29:12 71° NNW 20:30:07 41° ENE
Cosmos 1992 Rocket 4.0 20:24:33 10° NNW 20:29:48 85° WSW 20:33:07 23° SSE
STARLINK-1187 3.1 20:26:56 10° W 20:30:04 68° N 20:30:59 40° ENE
STARLINK-1198 3.0 20:26:58 10° W 20:30:05 71° NNW 20:30:58 42° ENE
STARLINK-1188 3.0 20:26:59 10° W 20:30:06 71° NNW 20:30:59 42° ENE
STARLINK-1236 3.5 20:26:02 10° WSW 20:30:07 88° SSE 20:32:11 28° ENE
STARLINK-1235 3.1 20:27:39 10° W 20:30:47 65° N 20:31:43 40° ENE
STARLINK-1101 4.1 20:27:47 10° WNW 20:31:48 50° SSW 20:33:11 34° SSE
STARLINK-1199 3.0 20:28:55 10° W 20:32:03 70° NNW 20:32:53 44° ENE
STARLINK-1191 3.0 20:29:22 10° W 20:32:30 70° NNW 20:33:19 44° ENE
STARLINK-1210 3.0 20:29:49 10° W 20:32:58 70° N 20:33:46 45° NE
STARLINK-1221 3.0 20:30:16 10° W 20:33:25 69° NNW 20:34:12 45° NE
STARLINK-1219 3.1 20:30:44 10° W 20:33:52 69° NNW 20:34:38 46° NE
STARLINK-1222 3.1 20:31:11 10° W 20:34:20 69° N 20:35:04 46° NE
Nadezhda 1 Rocket 4.2 20:29:47 18° SSE 20:34:24 50° E 20:40:31 10° NNE
STARLINK-1211 3.1 20:31:38 10° W 20:34:46 69° NNW 20:35:30 47° NE
STARLINK-1214 3.1 20:32:05 10° W 20:35:13 69° NNW 20:35:56 47° NE
ISS -3.4 20:31:58 10° W 20:35:15 51° SSW 20:35:39 47° S
STARLINK-1245 3.1 20:32:34 10° W 20:35:40 68° NNW 20:36:20 49° NE
SL-24 R/B 4.2 20:31:13 10° N 20:35:58 76° WNW 20:40:03 10° SSW
STARLINK-1238 3.1 20:32:57 10° W 20:36:05 68° NNW 20:36:47 48° NE
STARLINK-1102 4.2 20:32:45 10° WNW 20:36:45 47° SSW 20:37:58 36° SSE
STARLINK-1205 3.1 20:33:53 10° W 20:37:00 68° NNW 20:37:37 50° NE
STARLINK-1204 3.1 20:34:22 10° W 20:37:28 67° N 20:38:03 51° NE
STARLINK-1269 3.5 20:35:56 10° WSW 20:40:01 86° NNW 20:41:43 34° ENE
Cosmos 2084 Rocket 4.1 20:37:17 10° NW 20:41:38 50° SW 20:43:30 30° S
STARLINK-1111 4.2 20:37:45 10° WNW 20:41:43 45° SSW 20:42:45 36° S
Cosmos 2058 Rocket 4.0 20:42:37 31° ENE 20:42:37 31° ENE 20:46:08 10° NNE
MetOp-B 4.1 20:40:10 30° SSE 20:42:53 73° ENE 20:48:16 10° NNW
Cosmos 1703 3.2 20:39:05 10° N 20:43:02 67° ENE 20:43:49 52° SE
Cosmos 1603 3.7 20:37:44 10° S 20:43:11 52° ESE 20:48:38 10° NE
Cosmos 2251 Rocket 3.4 20:38:49 10° SSW 20:44:08 72° ESE 20:49:32 10° NNE
SPOT 5 3.7 20:44:25 27° ENE 20:44:44 28° ENE 20:48:27 10° N
Meteor 1-16 Rocket 4.0 20:40:19 15° S 20:44:49 68° E 20:50:17 10° NNE
STARLINK-1200 3.5 20:40:46 10° WSW 20:44:51 84° NNW 20:46:21 38° ENE
CZ-4C R/B 4.2 20:40:04 10° WNW 20:45:13 28° N 20:51:09 10° ENE
STARLINK-1073 4.3 20:42:46 10° WNW 20:46:41 42° SSW 20:47:33 37° S
Cosmos 2074 Rocket 4.1 20:41:31 10° NNW 20:47:48 77° W 20:53:00 16° S
CZ-2C R/B 2.5 20:43:51 10° NNE 20:49:05 88° ESE 20:54:16 10° SSW
IGS 5A 3.7 20:49:02 46° E 20:49:25 48° ENE 20:53:27 10° N
STARLINK-1192 3.6 20:45:32 10° WSW 20:49:37 81° NNW 20:50:55 42° ENE
ERS-1 Rocket 3.5 20:48:37 36° E 20:49:40 40° ENE 20:54:21 10° N
Landsat 7 4.0 20:49:39 44° ESE 20:50:47 55° ENE 20:55:27 10° N
Cosmos 2237 Rocket 4.4 20:46:49 10° W 20:51:31 26° NW 20:56:16 10° NNE
STARLINK-1121 4.4 20:47:44 10° WNW 20:51:38 39° SW 20:52:19 36° S
Cosmos 546 4.4 20:50:03 10° W 20:53:57 82° S 20:54:16 73° SE
STARLINK-1244 3.6 20:50:28 10° WSW 20:54:33 79° NNW 20:55:39 47° ENE
STARLINK-1234 3.5 20:53:08 10° W 20:55:44 52° NW 20:55:44 52° NW
STARLINK-1106 4.5 20:52:43 10° WNW 20:56:33 37° SW 20:57:04 35° SSW
STARLINK-1138 3.6 20:55:01 10° W 20:59:07 77° NNW 21:00:03 51° ENE
Cosmos 1656 Rocket 3.6 20:54:28 10° NNW 21:00:12 82° ENE 21:02:03 45° SE
MOS 1 Rocket 3.8 20:56:03 10° N 21:01:14 72° WNW 21:06:36 10° SSW
Cosmos 1610 Rocket 4.4 20:55:52 10° N 21:02:09 88° W 21:05:25 30° S
Meteor 1-11 4.2 20:56:28 10° N 21:02:19 80° ENE 21:04:29 40° SSE
Cosmos 1437 3.7 21:00:42 10° NNW 21:03:35 40° W 21:03:36 40° W
STARLINK-1143 3.6 20:59:55 10° W 21:04:01 75° NNW 21:04:46 57° NE
CARTOSAT-1 4.1 21:07:29 44° ENE 21:07:29 44° ENE 21:11:27 10° N
Cosmos 1726 Rocket 3.4 21:10:43 64° S 21:11:23 86° E 21:15:51 10° N
STARLINK-1241 3.6 21:08:09 10° W 21:12:13 72° N 21:12:34 66° NNE
Cosmos 1825 Rocket 4.5 21:08:56 10° NNW 21:13:10 46° W 21:15:02 28° SSW
COSMOS 2455 3.4 21:07:40 10° NNW 21:13:30 47° NE 21:15:09 38° E
STARLINK-1239 3.7 21:13:10 10° W 21:17:13 70° N 21:17:21 69° N
Aureole 2 Rocket 4.4 21:14:40 10° NW 21:17:28 22° WSW 21:18:09 21° WSW
Cosmos 1726 3.4 21:17:22 24° SW 21:19:09 41° WNW 21:22:43 10° N
Cosmos 1461 3.7 21:16:28 10° NNW 21:20:46 45° NE 21:20:56 45° NE
Cosmos 2341 Rocket 4.0 21:14:35 10° N 21:20:59 74° ENE 21:22:43 50° SSE
SAR-Lupe-2 4.1 21:18:15 10° N 21:21:47 56° WNW 21:21:48 56° WNW
STARLINK-1240 3.7 21:17:54 10° W 21:21:54 69° NNW 21:21:54 69° NNW
Cosmos 2369 Rocket 3.3 21:17:10 10° NW 21:22:25 38° WSW 21:25:03 25° SSW
Cosmos 1908 3.5 21:24:02 66° NW 21:24:02 66° NW 21:27:34 10° N
STARLINK-1216 3.8 21:22:40 10° W 21:26:29 66° NNW 21:26:29 66° NNW
NOSS 3-4 (A) 3.7 21:20:59 10° NW 21:27:53 87° NE 21:30:09 49° SE
NOSS 3-4 (C) 3.7 21:21:05 10° NW 21:27:59 86° NE 21:30:14 49° SE
Cosmos 1953 Rocket 4.4 21:25:15 10° NNW 21:29:30 46° W 21:30:33 38° SW
ATLAS CENTAUR R/B 4.0 21:27:56 10° NNW 21:29:51 13° N 21:31:43 10° NE
STARLINK-1237 4.0 21:27:27 10° W 21:31:04 61° NW 21:31:04 61° NW
Terra 2.1 21:32:46 54° NE 21:32:46 54° NE 21:37:06 10° N
STARLINK-1202 4.2 21:32:13 10° W 21:35:39 56° NW 21:35:39 56° NW
Spot 2 Rocket 4.2 21:35:53 36° SW 21:37:25 48° W 21:42:23 10° NNW
ERBS 4.3 21:35:06 10° WNW 21:37:35 27° NNW 21:37:35 27° NNW
NOSS 3-3 (A) 3.9 21:32:47 10° SW 21:38:46 87° NW 21:45:37 10° NE
NOSS 3-3 (C) 3.9 21:32:53 10° SW 21:38:52 88° NW 21:45:43 10° NE
SPOT 1/Viking Rocket 3.7 21:41:27 57° SSW 21:42:15 65° WSW 21:47:29 10° NNW
Cosmos 1943 Rocket 4.2 21:39:07 10° NW 21:43:09 21° W 21:46:08 14° SW
STARLINK-1246 4.4 21:39:34 10° W 21:42:47 49° WNW 21:42:47 49° WNW
Cosmos 1943 3.3 21:42:19 11° SW 21:47:49 72° WNW 21:53:31 10° NNE
Cosmos 2218 Rocket 3.8 21:41:52 10° N 21:48:03 73° ENE 21:48:36 69° ESE
Cosmos 1340 Rocket 3.9 21:51:02 42° N 21:51:02 42° N 21:53:52 10° N
Cosmos 1140 Rocket 4.5 21:56:03 36° NE 21:56:03 36° NE 21:59:11 10° NNE
APEX 4.4 21:48:40 10° NW 21:55:37 71° WSW 21:56:22 64° SSW
Resurs 01 Rocket 4.1 21:54:01 11° WSW 21:56:22 16° W 21:59:05 10° NW
Cosmos 921 Rocket 3.9 21:55:06 10° NNW 21:58:09 45° NW 21:58:09 45° NW
USA 234 3.4 21:53:01 10° ENE 21:59:32 71° NNW 22:06:03 10° WSW
ATLAS 2AS CENTAUR R/B 2.9 21:52:59 10° NW 22:00:33 65° SW 22:01:48 56° S
Cosmos 2181 Rocket 3.8 22:00:16 77° SSE 22:00:41 82° E 22:06:56 10° NNE
Cosmos 2058 4.3 21:59:06 10° N 22:01:32 34° N 22:01:32 34° N
Cosmos 407 Rocket 3.8 22:06:47 59° NNE 22:06:47 59° NNE 22:10:58 10° NNE
Cosmos 1697 Rocket 4.0 22:04:49 10° NNW 22:09:40 28° NE 22:10:12 27° NE
Iridium 4 Rocket 4.0 22:05:29 10° N 22:08:42 45° NNW 22:08:42 45° NNW
Mayak 1.0 22:14:19 10° NNE 22:15:32 18° NNE 22:15:32 18° NNE
SL-8 Rocket 4.3 22:14:45 10° NNW 22:20:56 60° W 22:21:40 56° WSW
SPOT 5 4.0 22:23:39 35° WNW 22:23:39 35° WNW 22:26:52 10° NNW
ERS-1 Rocket 4.2 22:28:37 34° W 22:28:37 34° W 22:33:07 10° NNW
Cosmos 2366 rocket 4.1 22:22:44 10° NNW 22:28:50 64° W 22:29:00 64° WSW
Cosmos 1980 Rocket 3.7 22:30:24 10° NNW 22:35:01 25° NE 22:35:28 25° NE
CZ-4C R/B 3.8 22:29:26 10° NW 22:35:32 38° NNE 22:38:44 27° ENE
COSMOS 2455 3.7 22:53:46 10° NW 22:58:18 40° W 22:58:18 40° W
ATLAS CENTAUR R/B 4.0 23:06:39 10° NNW 23:08:02 17° NNW 23:08:02 17° NNW
Terra 3.9 23:11:38 20° WNW 23:11:38 20° WNW 23:14:14 10° NW
Cosmos 1656 4.4 23:06:04 10° NNW 23:10:13 50° NNW 23:10:13 50° NNW
Cosmos 1821 Rocket 4.3 23:06:39 10° NNW 23:12:07 63° NW 23:12:07 63° NW
Meteor 2-3 Rocket 4.5 23:09:51 10° N 23:14:10 50° N 23:14:10 50° N
ATLAS 5 CENTAUR R/B 4.2 23:20:05 16° NE 23:20:05 16° NE 23:21:08 10° NE
Cosmos 1934 Rocket 4.4 23:26:13 10° NNW 23:31:19 60° NNW 23:31:19 60° NNW
USA 234 3.9 23:35:53 10° ENE 23:42:11 53° N 23:48:30 10° WNW
Mayak 1.4 23:50:37 10° NNW 23:52:06 16° NNW 23:52:06 16° NNW
Cosmos 1697 Rocket 3.9 23:48:32 10° NNW 23:51:55 37° NW 23:51:55 37° NW
SL-16 R/B 4.4 23:52:44 19° ENE 23:54:24 22° NE 23:58:57 10° N
